Location: Kapla
(46.2483°N, 15.0094°E)
Time: 20:54:59
(UTC+00:00)

Cosmos 1777 Rocket - Pass Details

Date: 03 March 2021
Orbit: 759 x 775 km, 74.0° (Epoch: 20 April)

Event Time Altitude Azimuth Distance (km) Brightness Sun altitude
Rises 18:28:17 0° 340° (NNW) 3,248 7.7 -17.9°
Reaches altitude 10° 18:30:43 10° 344° (NNW) 2,315 6.8 -18.3°
Maximum altitude 18:35:55 61° 65° (ENE) 866 4.0 -19.2°
Enters shadow 18:38:05 34° 132° (SE) 1,243 4.6 -19.5°
